DW3733 Luzzi (cosenza) IT current weather conditions

sailwx.info

Wind from 197 at 5 knots gusting 11

Air temperature 18.9° C
Dewpoint 9.4° C

Last reported at 2015-May-22 08:43 UTC.
Time now 2015-May-22 10:05 UTC

Location: N 39°27' E 016°16'.
View on Google Maps.

See reports from other nearby stations

  
Tides and Currents Weather Stations Pressure Air Temp Water Temp Dewpoint Dewpoint Depression Visibility Wind Speed Wind Dir Waves Ship Positions
date/time (UTC)wind fromknots sea level pressurealtimeterstation pressurevisibilityair tempwater tempwave heightnotes
2015-May-22 09:43 274 2 gusting 10 21.1
2015-May-22 09:33 225 6 gusting 10 21.1
2015-May-22 09:23 180 6 gusting 14 20.6
2015-May-22 09:13 045 5 gusting 12 20.0
2015-May-22 09:03 186 5 gusting 12 19.4
2015-May-22 08:53 180 7 gusting 11 18.9
2015-May-22 08:43 197 5 gusting 11 18.9
2015-May-22 08:33 241 5 gusting 11 18.9
2015-May-22 08:23 225 5 gusting 11 18.3
2015-May-22 08:13 195 5 gusting 11 18.3
2015-May-22 08:03 225 4 gusting 11 18.3
2015-May-22 07:53 191 6 gusting 13 18.3
2015-May-22 07:43 213 3 gusting 8 18.3
2015-May-22 07:33 208 3 gusting 8 17.8
2015-May-22 07:23 194 5 gusting 8 17.8
2015-May-22 07:13 159 5 gusting 11 17.8
2015-May-22 07:03 249 2 gusting 8 17.8
2015-May-22 06:53 091 3 gusting 7 17.8
2015-May-22 06:43 135 4 gusting 6 17.8
2015-May-22 06:33 180 2 gusting 7 17.8
2015-May-22 06:23 180 4 gusting 8 17.8
2015-May-22 06:13 229 3 gusting 7 18.3
2015-May-22 06:03 226 3 gusting 8 18.3
2015-May-22 05:53 151 4 gusting 8 18.3
2015-May-22 05:43 287 4 gusting 8 18.3
2015-May-22 05:33 186 5 gusting 6 18.3
2015-May-22 05:23 258 2 gusting 6 18.3
2015-May-22 05:13 226 3 gusting 5 18.3
2015-May-22 05:03 240 0 gusting 2 18.3
2015-May-21 21:13 342 19.4
2015-May-21 21:03 305 0 gusting 2 19.4
2015-May-21 20:53 090 0 gusting 4 19.4
2015-May-21 20:43 348 0 gusting 4 19.4
2015-May-21 20:33 333 1 gusting 4 19.4
2015-May-21 20:23 025 1 gusting 2 19.4
2015-May-21 20:13 054 1 gusting 2 19.4
2015-May-21 20:03 225 0 gusting 1 18.9
2015-May-21 19:53 090 0 gusting 2 19.4
2015-May-21 19:43 124 0 gusting 1 20.0
2015-May-21 19:33 058 0 gusting 2 20.0
2015-May-21 19:23 030 19.4
2015-May-21 19:13 080 0 gusting 2 20.0
2015-May-21 19:03 090 1 gusting 2 21.1
2015-May-21 18:53 018 20.6
2015-May-21 18:43 064 0 gusting 2 20.6
2015-May-21 18:33 047 0 gusting 2 20.6
2015-May-21 18:23 090 0 gusting 1 21.1
2015-May-21 18:13 045 21.7
2015-May-21 18:03 086 0 gusting 2 22.8
2015-May-21 17:53 041 1 gusting 2 23.3
2015-May-21 17:43 090 1 gusting 2 23.9
2015-May-21 17:33 073 1 gusting 2 24.4
2015-May-21 17:23 074 1 gusting 2 24.4
2015-May-21 17:13 045 0 gusting 2 24.4
2015-May-21 17:03 045 0 gusting 2 24.4
2015-May-21 16:43 045 1 gusting 5 25.0
2015-May-21 16:33 270 0 gusting 2 25.0
2015-May-21 16:23 067 0 gusting 4 25.0
2015-May-21 16:13 071 0 gusting 2 25.0
2015-May-21 16:03 049 1 gusting 4 25.6
2015-May-21 15:53 039 0 gusting 4 25.6
2015-May-21 15:43 334 1 gusting 4 25.6
2015-May-21 15:33 052 0 gusting 4 25.6
2015-May-21 15:23 093 1 gusting 5 25.6
2015-May-21 15:13 26.1
2015-May-21 15:03 028 0 gusting 6 26.1
2015-May-21 14:53 011 0 gusting 6 26.1
2015-May-21 14:43 061 1 gusting 4 26.7
2015-May-21 14:33 079 1 gusting 6 26.7
2015-May-21 14:23 212 1 gusting 5 26.7
2015-May-21 14:13 152 0 gusting 2 26.1
2015-May-21 14:03 045 1 gusting 4 26.1
2015-May-21 13:53 26.1
2015-May-21 13:43 053 2 gusting 6 25.6
2015-May-21 13:33 26.1
2015-May-21 13:23 26.1
2015-May-21 13:13 049 1 gusting 6 26.1
2015-May-21 13:03 295 1 gusting 5 26.1
2015-May-21 12:53 032 1 gusting 4 26.7
2015-May-21 12:43 289 0 gusting 4 26.1
2015-May-21 12:33 315 0 gusting 4 26.1
2015-May-21 12:23 035 0 gusting 4 25.6
2015-May-21 12:13 101 0 gusting 2 25.0
2015-May-21 12:03 045 0 gusting 2 25.0
2015-May-21 11:53 337 0 gusting 2 25.0
2015-May-21 11:43 25.0
2015-May-21 11:33 090 0 gusting 1 25.0
2015-May-21 11:23 080 1 gusting 4 25.0
2015-May-21 11:13 303 1 gusting 5 25.0
2015-May-21 11:03 317 1 gusting 2 25.0
2015-May-21 10:53 006 0 gusting 4 25.0
2015-May-21 10:43 017 1 gusting 4 25.0
2015-May-21 10:33 034 1 gusting 2 25.0
2015-May-21 10:23 324 1 gusting 5 25.0
2015-May-21 10:13 208 0 gusting 2 25.0
2015-May-21 10:03 090 0 gusting 2 25.0
2015-May-21 09:53 315 25.0
2015-May-21 09:43 225 0 gusting 2 25.0
2015-May-21 09:33 329 0 gusting 5 25.6
2015-May-21 09:23 241 0 gusting 5 25.6
2015-May-21 09:13 073 0 gusting 5 25.0
2015-May-21 09:03 240 3 gusting 6 24.4
2015-May-21 08:53 258 2 gusting 6 24.4
2015-May-21 08:43 173 2 gusting 6 24.4
2015-May-21 08:33 291 4 gusting 6 24.4
2015-May-21 08:23 189 5 gusting 7 23.9
2015-May-21 08:13 189 3 gusting 6 22.8
2015-May-21 08:03 22.8
2015-May-21 07:53 217 2 gusting 8 22.8
2015-May-21 07:43 263 5 gusting 8 23.3
2015-May-21 07:33 296 5 gusting 8 23.3
2015-May-21 07:23 193 6 gusting 11 23.3
2015-May-21 07:13 186 2 gusting 10 22.8
2015-May-21 07:03 193 4 gusting 8 22.8
2015-May-21 06:53 202 1 gusting 8 22.8
2015-May-21 06:43 201 5 gusting 11 22.8
2015-May-21 06:33 190 2 gusting 6 22.8
2015-May-21 06:23 210 2 gusting 5 23.3
2015-May-21 06:13 192 2 gusting 5 22.2
2015-May-21 06:03 113 1 gusting 5 20.6
2015-May-21 05:53 192 0 gusting 2 18.3
2015-May-21 05:43 086 0 gusting 5 18.3
2015-May-21 05:33 299 17.8
2015-May-21 05:23 272 1 gusting 2 18.3
2015-May-21 05:13 216 17.8
2015-May-21 05:03 116 0 gusting 2 17.8
2015-May-21 04:53 045 0 gusting 2 17.8
2015-May-20 21:53 090 0 gusting 2 18.3
2015-May-20 21:43 315 18.3
2015-May-20 21:33 18.3
2015-May-20 21:23 093 1 gusting 4 17.8
2015-May-20 21:15 103 1 gusting 2 17.2
2015-May-20 21:11 090 1 gusting 2 17.2
2015-May-20 21:06 078 1 17.8
2015-May-20 21:00 090 17.2
2015-May-20 20:55 17.2
2015-May-20 20:45 017 2 gusting 4 17.8
2015-May-20 20:40 009 17.2
2015-May-20 20:33 090 1 gusting 2 17.2
2015-May-20 20:30 117 1 gusting 2 17.8
2015-May-20 20:25 090 1 gusting 2 18.3
2015-May-20 20:19 007 0 gusting 2 18.9
2015-May-20 20:14 090 0 gusting 4 18.9